Regional Weather Roundup
Issued by NWS Wakefield, VA

Home | Current Version | Previous Version | Text Only | Print | Product List | Glossary On
Versions: 1 2 3 4 5 6 7 8 9 10 11 12 13 14 15 16 17 18 19 20 21 22 23 24 25 26 27 28 29 30 31 32 33 34 35 36 37 38 39 40 41 42 43 44 45 46 47 48 49 50
000
ASUS41 KAKQ 290110
RWRAKQ

REGIONAL WEATHER ROUNDUP
NATIONAL WEATHER SERVICE WAKEFIELD VA
800 PM EST SUN DEC 28 2014

Note: "fair" indicates few or no clouds below 12,000 feet with no
significant weather and/or obstructions to visibility. * = Denotes
station may not report precipitation (e.g., rain,snow,etc.),
thunder or fog.

VAZ042-051-052>054-056-290200-
NORTHERN VIRGINIA

CITY           SKY/WX    TMP DP  RH WIND       PRES   REMARKS
WASH NATIONAL  CLOUDY    54  46  74 N7        30.03F
DULLES         CLOUDY    49  43  80 N5        30.05R
FORT BELVOIR   CLOUDY    48  48 100 W3        30.05R
QUANTICO       CLOUDY    48  45  89 CALM      30.05R
FREDERICKSBRG* CLOUDY    49  49 100 CALM      30.02S FOG
STAFFORD*      CLOUDY    48  32  53 CALM      30.07S
WARRENTON      CLOUDY    49  49 100 N3        30.03R
CULPEPER*      CLOUDY    48  46  93 CALM      30.04R
MANASSAS*      CLOUDY    50  48  93 N7        30.05R
LEESBURG*      CLOUDY    50  45  81 N6        30.04F
WINCHESTER     CLOUDY    50  36  57 NW6       30.06R
FRONT ROYAL*   CLOUDY    46  43  87 N5        30.05R
LURAY*         CLOUDY    50  50 100 NE8       30.02R
$$

VAZ048-049-060>072-079>083-290200-
CENTRAL AND SOUTH CENTRAL VIRGINIA

CITY           SKY/WX    TMP DP  RH WIND       PRES   REMARKS
RICHMOND       CLOUDY    54  51  90 CALM      30.02R
CHESTERFIELD*  CLOUDY    54  43  66 S3        30.03R
PETERSBURG*    CLOUDY    55  53  95 CALM      30.03R
HANOVER        CLOUDY    51  51 100 CALM      30.03R FOG
TAPPAHANNOCK*  CLOUDY    52  44  73 CALM      30.02S
QUINTON*       CLOUDY    52  52  99 CALM      30.02R
CHARLOTTSVILLE CLOUDY    48  45  89 CALM      30.02R
GORDONSVILLE*  CLOUDY    46  46  99 CALM      30.02R
ORANGE*        CLOUDY    46  45  93 CALM      30.04R
LOUISA*        CLOUDY    50  48  93 CALM      30.01R
BUMPASS*       CLOUDY    49  49  99 CALM      30.02R
FARMVILLE*     CLOUDY    55  48  78 CALM      30.01R
CREWE*         CLOUDY    54  50  86 CALM      30.02S
FORT PICKETT*  CLOUDY    51  50  97 SW3       30.03R
CHASE CITY*    CLOUDY    55  55 100 CALM      30.03F
CLARKSVILLE*   CLOUDY    54  54 100 CALM      30.03F
SOUTH HILL*    CLOUDY    56  55  93 SW3       30.09R
LAWRENCEVILLE* CLOUDY    56  55  96 SW6       30.04R
EMPORIA*       CLOUDY    57  55  94 CALM      30.05R
$$

VAZ088>098-290200-
SOUTHEAST VIRGINIA

CITY           SKY/WX    TMP DP  RH WIND       PRES   REMARKS
NORFOLK        CLOUDY    58  55  90 S3        30.02S
VIRGINIA BEACH CLOUDY    60  57  89 CALM      30.03S
NORFOLK NAVAL  CLOUDY    62  54  74 S3        30.03S
WEST POINT*    CLOUDY    55  52  91 CALM      30.04R
SALUDA*        CLOUDY    50  45  80 CALM      30.01S
NEWPORT NEWS   CLOUDY    60  54  80 CALM      30.03R
LANGLEY AFB    CLOUDY    57  54  90 CALM      30.03R
FORT EUSTIS    CLOUDY    56  56 100 S2        30.00S
WILLIAMSBURG*  CLOUDY    57  54  88 CALM      30.03R
HR EXEC AP*    CLOUDY    59  55  88 SW6       30.04S
FRANKLIN*      CLOUDY    59  57  94 SW3       30.03S
WAKEFIELD      CLOUDY    57  54  89 CALM      30.02S
$$

VAZ020-022-025-037-045-290200-
WEST CENTRAL AND SOUTHWEST VIRGINIA

CITY           SKY/WX    TMP DP  RH WIND       PRES   REMARKS
STAUNTON*      CLOUDY    49  46  90 CALM      30.03R
WAYNESBORO*    CLOUDY    51  45  79 W6        30.03R
HOT SPRINGS VA FOG       41  41 100 W16G23    30.00R VSB 1/2
LYNCHBURG      CLOUDY    52  46  80 CALM      30.04R
DANVILLE       MOCLDY    52  49  89 CALM      30.05R
SOUTH BOSTON*  CLOUDY    54  50  89 CALM      30.04S
MARTINSVILLE   PTCLDY    45  45 100 CALM      30.08R
ROANOKE        CLOUDY    52  45  77 W12       30.07R
BLACKSBURG     CLOUDY    46  45  97 W3        30.09R
DUBLIN*        CLOUDY    48  48 100 CALM      30.08R
MARION*        DRZL/FOG  47  46  96 W9        30.11R VSB 1
HILLSVILLE*    MOCLDY    46  45  95 W6        30.07R
RICHLANDS*     FOG       45  44  95 W5        30.10R VSB<1/4
WISE*          FOG       45  45 100 CALM      30.11R VSB 1/4
ABINGDON*      FOG       48  48 100 CALM      30.09S VSB 1/2
$$

MDZ021>025-VAZ099-100-290200-
SOUTHERN MARYLAND AND THE DELMARVA PENINSULA

CITY           SKY/WX    TMP DP  RH WIND       PRES   REMARKS
PATUXENT RIVER CLOUDY    48  45  89 CALM      30.01S
BAY BRIDGE APT   N/A     46  45  93 CALM      30.03S
LEONARDTOWN    CLOUDY    48  45  87 CALM      30.03S
DOVER          CLOUDY    48  48 100 W5        30.00R
GEORGETOWN     LGT RAIN  49  47  93 CALM      30.02S FOG
EASTON         LGT RAIN  48  48 100 CALM      30.06R
CAMBRIDGE      CLOUDY    52  48  87 CALM      30.02R
SALISBURY      CLOUDY    52  47  83 CALM      30.01F
OCEAN CITY     CLOUDY    49  46  90 CALM      30.01F
WALLOPS ISLAND CLOUDY    52  44  74 E3        30.01F
ACCOMACK*      CLOUDY    50  45  81 CALM      30.02S
$$

NCZ012>017-030>032-290200-
NORTH CENTRAL AND EASTERN NORTH CAROLINA

CITY           SKY/WX    TMP DP  RH WIND       PRES   REMARKS
ROANOKE RAPIDS CLOUDY    55  54  94 CALM      30.04R
RALEIGH        MOCLDY    57  54  89 SW5       30.06R
ELIZABETH CITY CLOUDY    63  58  83 SW7       30.05S
AHOSKIE*       CLOUDY    57  56  96 CALM      30.04S
EDENTON*       CLOUDY    59  57  94 W3        30.05F
CURRITUCK*     CLOUDY    59  57  93 CALM      30.05S FOG
KILL DEVIL HLS CLOUDY    59  57  95 W3        30.04S
MANTEO         CLOUDY    57  55  94 CALM      30.06S
CAPE HATTERAS  PTCLDY    56  55  97 W3        30.06R
TARBORO*       CLOUDY    59  57  96 CALM      30.05F
GOLDSBORO      FOG       59  59 100 CALM      30.04S VSB 1
WASHINGTON     DRIZZLE   59  58  97 CALM      30.06S
GREENVILLE     CLOUDY    59  59 100 S3        30.07S FOG
NEW BERN       CLOUDY    64  57  78 CALM      30.07R
WILMINGTON     CLOUDY    64  61  90 SW3       30.06R
$$

VAZ048-290200-
ELSEWHERE

CITY           SKY/WX    TMP DP  RH WIND       PRES   REMARKS
HARRISBURG PA  CLOUDY    44  32  62 NW14      30.04R
BALTIMORE      CLOUDY    50  46  86 CALM      30.03R
ANNAPOLIS      CLOUDY    49  47  93 NW6       30.03R
ANDREWS AFB    CLOUDY    50  46  87 NW5       30.03R
PHILADELPHIA   CLOUDY    51  43  74 W7        30.02R
HENDERSON NC   MOCLDY    55  53  94 SW5       30.04S
GREENSBORO     MOCLDY    52  51  97 CALM      30.04R FOG
ROCKY MOUNT    CLOUDY    59  57  93 SW3       30.05S
$$

VAZ100-290200-
MARINE

STATION/POSITION TIME  TEMP    WIND        PRES    WAVE   SWELL
                       AIR SEA DIR/SP/G            HT/PER HT/PER
                 (UTC) (F)     (DEG/KT/KT) (MB)    (FT/S) (FT/S)
CAPE MAY NJ      0100   47 46  220/  5/  5 1015.9R
LEWES DE         0100   50 44  210/  4/  5 1016.3R
15NM E FENWICK I 0100   49 46              1016.3F   3/13
OCEAN-CITY-INLET 0100   52 46  100/  2/  2 1015.8F
WACHAPREAGUE VA  0100   52 50   CALM  /  1 1016.3F
THOMAS POINT MD  0100   47 43  340/  3/  3 1018.2R
GOOSES REEF MD   0100   46      CALM  /  2 1015.8R
COVE POINT MD    0100   49      CALM  /  1 1016.6R
SOLOMONS ISLAND  0100      44                N/A
BISHOPS HEAD MD  0100   49 46   70/  4/  5 1015.8R
PINEY POINT MD   0100          100/  2/  2   N/A
POTOMAC MD       0100   47      80/  2/  4 1015.4R
CAMBRIDGE MD     0100   49 43  290/  3/  3 1016.4R
LEWISETTA VA     0100   49 45     CALM     1016.2R
RAPPAHANNOCK LGT 0100           80/  4/  5 1016.9R
STINGRAY PT      0100   47      CALM  /  2 1016.9R
YORK RVR RNG VA  0100   51      70/  5/  7 1016.2R
YORKTOWN VA      0100   56 46  290/  3/  3 1016.4R
JAMESTOWN VA     0100   54     160/  2/  2   N/A
DOMINION TERM VA 0100   54     160/  2/  2 1016.7R
KIPTOPEKE VA     0100      51   CALM  /  3   N/A
CHES BAY BRIDGE  0100   58 47  180/  4/  5 1016.3R
CAPE HENRY VA    0100   59     210/  4/  5 1015.5R
CHESAPEAKE LGHT  0000   58     290/ 11/ 11 1017.3F
WILLOUBY STN VA  0100   59     190/  4/  4 1017.1R
S CRANEY ISL VA  0100          260/  2/  3 1016.6R
CAPE HENRY BUOY  0100      48                N/A     2/11   2/11
1ST LANDING BUOY 0100   51     170/  2/  2 1016.1S
CAPE CHARLES BUO 0100      48                N/A     2/13   2/13
64NM E OF VA BCH 0100   56 53  280/ 10/ 12 1017.4R   4/13   3/13
DUCK PIER NC     0100   59 50  280/ 10/ 12 1016.8F
44100 DUCK FRF   0100      50                N/A     2/11   2/11
44056 DUCK FRF   0100      49                N/A     2/14   2/14
OREGON INLET NC  0100   55 53  180/  2/  3 1017.8S
HATTERAS NC      0100   59 56  270/  2/  3 1018.3R
DIAMOND SHLS NC  0100   70                 1017.7R   4/13
CAPE LOOKOUT NC  0000   64     220/ 11/ 15 1017.4R
$$


USA.gov is the U.S. government's official web portal to all federal, state and local government web resources and services.